| time (UTC) | temp F | wind direction | speed knots | gust knots | rain 1hr in | rain 24hr in | rain mn in | humidity % | barometer mb |
| 20260507155103 | 54 | 184 | 0.0 | 0.9 | 0.00 | 0.23 | 0.23 | 73 | 1012.8 |
| 20260507154547 | 54 | 179 | 0.0 | 0.9 | 0.00 | 0.23 | 0.23 | 72 | 1012.8 |
| 20260507154043 | 54 | 0.0 | 0.0 | 0.00 | 0.23 | 0.23 | 73 | 1012.8 | |
| 20260507153542 | 54 | 183 | 0.0 | 0.9 | 0.00 | 0.23 | 0.23 | 73 | 1012.7 |
| 20260507153044 | 54 | 0.0 | 0.0 | 0.00 | 0.23 | 0.23 | 72 | 1012.7 | |
| 20260507152547 | 54 | 176 | 0.0 | 0.9 | 0.00 | 0.23 | 0.23 | 70 | 1012.9 |
| 20260507152043 | 54 | 75 | 0.0 | 0.9 | 0.00 | 0.23 | 0.23 | 70 | 1012.9 |
| 20260507151541 | 54 | 0.0 | 0.0 | 0.00 | 0.23 | 0.23 | 71 | 1012.9 | |
| 20260507151043 | 53 | 53 | 0.0 | 0.9 | 0.00 | 0.23 | 0.23 | 69 | 1012.8 |
| 20260507150547 | 54 | 170 | 0.0 | 0.9 | 0.00 | 0.23 | 0.23 | 71 | 1012.8 |
| 20260507150043 | 53 | 38 | 0.0 | 0.9 | 0.00 | 0.23 | 0.23 | 70 | 1012.8 |
| 20260507145541 | 53 | 91 | 0.9 | 1.7 | 0.00 | 0.23 | 0.23 | 69 | 1012.8 |
| 20260507145043 | 54 | 125 | 0.0 | 0.9 | 0.00 | 0.23 | 0.23 | 71 | 1013.1 |
| 20260507144548 | 54 | 81 | 0.0 | 0.9 | 0.00 | 0.23 | 0.23 | 70 | 1013.0 |
| 20260507144043 | 54 | 137 | 0.0 | 0.9 | 0.00 | 0.23 | 0.23 | 70 | 1013.3 |
| 20260507143542 | 53 | 56 | 0.0 | 0.9 | 0.00 | 0.23 | 0.23 | 68 | 1013.5 |
| 20260507143043 | 54 | 60 | 0.0 | 0.9 | 0.00 | 0.24 | 0.23 | 69 | 1013.5 |
| 20260507142547 | 54 | 14 | 0.0 | 0.9 | 0.00 | 0.24 | 0.23 | 68 | 1013.4 |
| 20260507142043 | 53 | 294 | 0.9 | 0.9 | 0.00 | 0.26 | 0.23 | 69 | 1013.4 |
| 20260507141602 | 53 | 88 | 0.0 | 0.9 | 0.00 | 0.28 | 0.23 | 69 | 1013.4 |
| 20260507141043 | 53 | 52 | 0.9 | 1.7 | 0.00 | 0.31 | 0.23 | 69 | 1013.3 |
| 20260507140547 | 53 | 142 | 0.0 | 0.9 | 0.00 | 0.32 | 0.23 | 70 | 1013.5 |
| 20260507140043 | 53 | 0.0 | 0.0 | 0.00 | 0.32 | 0.23 | 70 | 1013.6 | |
| 20260507135542 | 53 | 33 | 0.9 | 1.7 | 0.00 | 0.32 | 0.23 | 71 | 1013.5 |
| 20260507135043 | 53 | 162 | 0.0 | 0.9 | 0.00 | 0.32 | 0.23 | 71 | 1013.5 |
| 20260507134547 | 53 | 56 | 0.9 | 1.7 | 0.00 | 0.32 | 0.23 | 71 | 1013.6 |
| 20260507134043 | 53 | 99 | 0.9 | 1.7 | 0.00 | 0.32 | 0.23 | 72 | 1013.5 |
| 20260507133542 | 53 | 35 | 0.9 | 1.7 | 0.00 | 0.32 | 0.23 | 72 | 1013.4 |
| 20260507133043 | 53 | 24 | 0.9 | 2.6 | 0.00 | 0.33 | 0.23 | 73 | 1013.5 |
| 20260507132608 | 53 | 58 | 0.9 | 1.7 | 0.00 | 0.33 | 0.23 | 75 | 1013.6 |
| 20260507132043 | 53 | 148 | 0.9 | 1.7 | 0.00 | 0.34 | 0.23 | 76 | 1013.5 |
| 20260507131541 | 54 | 134 | 0.0 | 0.9 | 0.00 | 0.34 | 0.23 | 78 | 1013.5 |
| 20260507131103 | 53 | 313 | 0.9 | 1.7 | 0.00 | 0.34 | 0.23 | 81 | 1013.1 |
| 20260507130547 | 53 | 29 | 0.9 | 2.6 | 0.00 | 0.35 | 0.23 | 84 | 1013.1 |
| 20260507130103 | 53 | 20 | 0.9 | 1.7 | 0.00 | 0.35 | 0.23 | 86 | 1013.4 |
| 20260507125542 | 53 | 23 | 0.9 | 1.7 | 0.00 | 0.35 | 0.23 | 87 | 1013.5 |
| 20260507125043 | 54 | 15 | 0.9 | 2.6 | 0.00 | 0.35 | 0.23 | 89 | 1013.4 |
| 20260507124607 | 54 | 57 | 0.0 | 0.9 | 0.00 | 0.36 | 0.23 | 89 | 1013.6 |
| 20260507124043 | 54 | 49 | 0.0 | 1.7 | 0.00 | 0.36 | 0.23 | 90 | 1013.2 |
| 20260507123542 | 54 | 0.0 | 0.0 | 0.00 | 0.36 | 0.23 | 91 | 1013.2 | |
| 20260507123043 | 54 | 116 | 0.9 | 0.9 | 0.00 | 0.36 | 0.23 | 91 | 1012.9 |
| 20260507122549 | 54 | 20 | 0.0 | 0.9 | 0.00 | 0.36 | 0.23 | 92 | 1013.0 |
| 20260507122043 | 54 | 21 | 0.9 | 2.6 | 0.00 | 0.36 | 0.23 | 92 | 1012.9 |
| 20260507121541 | 54 | 154 | 0.0 | 0.9 | 0.00 | 0.36 | 0.23 | 92 | 1012.8 |
| 20260507121043 | 54 | 112 | 0.0 | 0.9 | 0.00 | 0.36 | 0.23 | 92 | 1013.1 |
| 20260507120547 | 54 | 22 | 0.0 | 1.7 | 0.00 | 0.36 | 0.23 | 92 | 1012.8 |
| 20260507120043 | 54 | 156 | 0.0 | 0.9 | 0.00 | 0.36 | 0.23 | 92 | 1012.9 |
| 20260507115542 | 54 | 198 | 0.0 | 0.9 | 0.00 | 0.36 | 0.23 | 93 | 1012.7 |
| 20260507115124 | 53 | 158 | 0.0 | 0.9 | 0.00 | 0.36 | 0.23 | 93 | 1012.8 |
| 20260507114547 | 53 | 100 | 0.0 | 0.9 | 0.00 | 0.36 | 0.23 | 93 | 1012.9 |
| 20260507114043 | 54 | 81 | 0.0 | 0.9 | 0.00 | 0.36 | 0.23 | 93 | 1012.8 |
| 20260507113543 | 53 | 0.0 | 0.0 | 0.00 | 0.36 | 0.23 | 93 | 1012.9 | |
| 20260507113043 | 53 | 0.0 | 0.0 | 0.00 | 0.36 | 0.23 | 93 | 1012.7 | |
| 20260507112547 | 54 | 0.0 | 0.0 | 0.00 | 0.36 | 0.23 | 93 | 1012.4 | |
| 20260507112044 | 53 | 0.0 | 0.0 | 0.00 | 0.36 | 0.23 | 93 | 1012.4 | |
| 20260507111542 | 53 | 0.0 | 0.0 | 0.00 | 0.36 | 0.23 | 93 | 1012.7 | |
| 20260507111044 | 53 | 0.0 | 0.0 | 0.00 | 0.36 | 0.23 | 93 | 1012.7 | |
| 20260507110547 | 53 | 0.0 | 0.0 | 0.00 | 0.36 | 0.23 | 93 | 1012.7 | |
| 20260507110044 | 53 | 0.0 | 0.0 | 0.00 | 0.36 | 0.23 | 93 | 1012.8 | |
| 20260507105542 | 53 | 0.0 | 0.0 | 0.00 | 0.36 | 0.23 | 93 | 1012.6 | |
| 20260507105043 | 53 | 0.0 | 0.0 | 0.00 | 0.36 | 0.23 | 93 | 1012.7 | |
| 20260507104547 | 53 | 0.0 | 0.0 | 0.00 | 0.36 | 0.23 | 93 | 1012.6 | |
| 20260507104044 | 53 | 0.0 | 0.0 | 0.00 | 0.36 | 0.23 | 93 | 1012.3 | |
| 20260507103542 | 53 | 0.0 | 0.0 | 0.00 | 0.36 | 0.23 | 93 | 1012.5 | |
| 20260507103104 | 53 | 0.0 | 0.0 | 0.00 | 0.36 | 0.23 | 92 | 1012.7 | |
| 20260507102548 | 53 | 0.0 | 0.0 | 0.00 | 0.36 | 0.23 | 92 | 1012.5 | |
| 20260507102044 | 53 | 0.0 | 0.0 | 0.00 | 0.36 | 0.23 | 92 | 1012.2 | |
| 20260507101542 | 54 | 0.0 | 0.0 | 0.00 | 0.36 | 0.23 | 92 | 1012.2 | |
| 20260507101044 | 54 | 0.0 | 0.0 | 0.00 | 0.36 | 0.23 | 92 | 1012.1 | |
| 20260507100549 | 54 | 0.0 | 0.0 | 0.00 | 0.36 | 0.23 | 92 | 1012.2 | |
| 20260507100043 | 54 | 0.0 | 0.0 | 0.00 | 0.36 | 0.23 | 92 | 1012.2 | |
| 20260507095542 | 53 | 0.0 | 0.0 | 0.00 | 0.36 | 0.23 | 92 | 1012.3 | |
| 20260507095044 | 53 | 0.0 | 0.0 | 0.00 | 0.36 | 0.23 | 92 | 1012.2 | |
| 20260507094548 | 53 | 0.0 | 0.0 | 0.00 | 0.36 | 0.23 | 92 | 1012.3 | |
| 20260507094044 | 53 | 0.0 | 0.0 | 0.00 | 0.36 | 0.23 | 92 | 1012.1 | |
| 20260507093541 | 53 | 0.0 | 0.0 | 0.00 | 0.36 | 0.23 | 92 | 1012.1 | |
| 20260507093044 | 54 | 0.0 | 0.0 | 0.00 | 0.36 | 0.23 | 92 | 1012.1 | |
| 20260507092613 | 54 | 0.0 | 0.0 | 0.00 | 0.36 | 0.23 | 92 | 1012.1 | |
| 20260507092044 | 54 | 0.0 | 0.0 | 0.00 | 0.36 | 0.23 | 92 | 1011.9 | |
| 20260507091542 | 54 | 0.0 | 0.0 | 0.00 | 0.36 | 0.23 | 92 | 1011.8 | |
| 20260507091104 | 53 | 0.0 | 0.0 | 0.00 | 0.36 | 0.23 | 92 | 1011.9 | |
| 20260507090548 | 53 | 0.0 | 0.0 | 0.00 | 0.36 | 0.23 | 92 | 1011.9 | |
| 20260507090044 | 53 | 0.0 | 0.0 | 0.00 | 0.36 | 0.23 | 92 | 1011.8 | |
| 20260507085602 | 53 | 0.0 | 0.0 | 0.00 | 0.36 | 0.23 | 91 | 1011.8 | |
| 20260507085044 | 53 | 0.0 | 0.0 | 0.00 | 0.36 | 0.23 | 91 | 1011.8 | |
| 20260507084548 | 53 | 0.0 | 0.0 | 0.00 | 0.36 | 0.23 | 91 | 1011.7 | |
| 20260507084044 | 53 | 0.0 | 0.0 | 0.00 | 0.36 | 0.23 | 91 | 1011.8 | |
| 20260507083542 | 53 | 0.0 | 0.0 | 0.00 | 0.36 | 0.23 | 91 | 1012.0 | |
| 20260507083124 | 53 | 0.0 | 0.0 | 0.00 | 0.36 | 0.23 | 91 | 1011.8 | |
| 20260507082548 | 53 | 0.0 | 0.0 | 0.00 | 0.36 | 0.23 | 91 | 1011.9 | |
| 20260507082044 | 53 | 0.0 | 0.0 | 0.00 | 0.36 | 0.23 | 91 | 1012.0 | |
| 20260507081542 | 53 | 0.0 | 0.0 | 0.00 | 0.36 | 0.23 | 91 | 1011.8 | |
| 20260507081044 | 53 | 317 | 0.0 | 0.9 | 0.00 | 0.36 | 0.23 | 91 | 1012.0 |
| 20260507080628 | 53 | 30 | 0.0 | 0.9 | 0.00 | 0.36 | 0.23 | 91 | 1012.0 |
| 20260507080043 | 53 | 0.0 | 0.0 | 0.00 | 0.36 | 0.23 | 91 | 1011.8 | |
| 20260507075542 | 53 | 77 | 0.0 | 1.7 | 0.00 | 0.36 | 0.23 | 91 | 1011.5 |
| 20260507075044 | 53 | 36 | 0.0 | 0.9 | 0.00 | 0.36 | 0.23 | 91 | 1011.4 |
| 20260507074548 | 53 | 7 | 0.9 | 1.7 | 0.00 | 0.36 | 0.23 | 91 | 1011.4 |
| 20260507074044 | 53 | 59 | 0.0 | 0.9 | 0.00 | 0.36 | 0.23 | 91 | 1011.3 |
| 20260507073542 | 54 | 7 | 0.0 | 0.9 | 0.00 | 0.36 | 0.23 | 91 | 1011.2 |
| 20260507073043 | 54 | 0.0 | 0.0 | 0.00 | 0.36 | 0.23 | 91 | 1011.2 | |
| 20260507072548 | 54 | 0.0 | 0.0 | 0.00 | 0.36 | 0.23 | 91 | 1011.1 | |
| 20260507062548 | 55 | 90 | 0.9 | 1.7 | 0.04 | 0.36 | 0.23 | 91 | 1011.2 |
| 20260507062043 | 55 | 9 | 0.9 | 2.6 | 0.04 | 0.36 | 0.23 | 91 | 1011.4 |
| 20260507061542 | 56 | 333 | 0.9 | 2.6 | 0.05 | 0.36 | 0.23 | 91 | 1011.4 |
| 20260507061044 | 56 | 2 | 0.9 | 1.7 | 0.05 | 0.36 | 0.23 | 91 | 1011.3 |
| 20260507060547 | 56 | 333 | 0.9 | 2.6 | 0.06 | 0.36 | 0.23 | 90 | 1011.2 |
| 20260507060044 | 56 | 346 | 1.7 | 4.3 | 0.06 | 0.36 | 0.23 | 90 | 1011.0 |
| 20260507055542 | 56 | 11 | 0.9 | 2.6 | 0.06 | 0.35 | 0.22 | 90 | 1010.7 |
| 20260507055044 | 56 | 19 | 1.7 | 4.3 | 0.07 | 0.35 | 0.22 | 90 | 1010.5 |
| 20260507054548 | 57 | 24 | 1.7 | 2.6 | 0.08 | 0.35 | 0.22 | 90 | 1010.1 |
| 20260507054044 | 57 | 31 | 0.9 | 2.6 | 0.07 | 0.34 | 0.21 | 90 | 1010.1 |
| 20260507053541 | 57 | 132 | 0.9 | 2.6 | 0.08 | 0.34 | 0.21 | 90 | 1009.9 |
| 20260507053045 | 58 | 147 | 1.7 | 2.6 | 0.08 | 0.33 | 0.20 | 90 | 1010.0 |
| 20260507052608 | 58 | 148 | 0.9 | 1.7 | 0.08 | 0.32 | 0.19 | 89 | 1010.4 |
| 20260507052044 | 58 | 54 | 0.0 | 0.9 | 0.09 | 0.32 | 0.19 | 89 | 1011.0 |
| 20260507051542 | 58 | 156 | 0.9 | 1.7 | 0.10 | 0.31 | 0.18 | 89 | 1011.0 |
| 20260507051044 | 59 | 144 | 0.0 | 1.7 | 0.13 | 0.31 | 0.18 | 89 | 1011.2 |
| 20260507050608 | 59 | 19 | 0.9 | 1.7 | 0.17 | 0.30 | 0.17 | 89 | 1011.3 |
| 20260507050044 | 59 | 119 | 0.0 | 0.9 | 0.17 | 0.30 | 0.17 | 88 | 1011.4 |
| 20260507045542 | 59 | 177 | 0.0 | 0.9 | 0.16 | 0.29 | 0.16 | 88 | 1011.0 |
| 20260507045044 | 59 | 17 | 0.0 | 1.7 | 0.15 | 0.28 | 0.15 | 88 | 1011.0 |
| 20260507044548 | 59 | 48 | 0.0 | 1.7 | 0.14 | 0.27 | 0.14 | 88 | 1010.9 |
| 20260507044044 | 59 | 33 | 0.9 | 2.6 | 0.14 | 0.27 | 0.14 | 87 | 1010.9 |
| 20260507043542 | 59 | 25 | 0.9 | 0.9 | 0.13 | 0.26 | 0.13 | 87 | 1011.1 |
| 20260507043104 | 59 | 317 | 0.9 | 2.6 | 0.12 | 0.25 | 0.12 | 87 | 1011.1 |
| 20260507042548 | 60 | 2 | 1.7 | 2.6 | 0.11 | 0.24 | 0.11 | 86 | 1011.2 |
| 20260507042043 | 60 | 2 | 1.7 | 4.3 | 0.10 | 0.23 | 0.10 | 86 | 1011.4 |
| 20260507041542 | 61 | 324 | 1.7 | 4.3 | 0.08 | 0.21 | 0.08 | 85 | 1011.2 |
| 20260507041044 | 63 | 11 | 1.7 | 2.6 | 0.05 | 0.18 | 0.05 | 84 | 1011.3 |
| 20260507040608 | 62 | 265 | 0.9 | 1.7 | 0.00 | 0.13 | 0.00 | 83 | 1010.9 |
| 20260507040104 | 63 | 180 | 0.9 | 1.7 | 0.00 | 0.13 | 0.00 | 83 | 1010.1 |
| 20260507035542 | 63 | 0.0 | 0.0 | 0.00 | 0.13 | 0.13 | 82 | 1010.3 | |
| 20260507035044 | 63 | 0.0 | 0.0 | 0.00 | 0.13 | 0.13 | 82 | 1010.4 | |
| 20260507034540 | 63 | 337 | 0.9 | 2.6 | 0.00 | 0.13 | 0.13 | 82 | 1010.5 |
| 20260507034044 | 63 | 166 | 0.9 | 1.7 | 0.00 | 0.13 | 0.13 | 83 | 1010.3 |
| 20260507033542 | 64 | 21 | 1.7 | 4.3 | 0.00 | 0.13 | 0.13 | 84 | 1010.2 |
| 20260507033103 | 64 | 97 | 0.9 | 0.9 | 0.00 | 0.13 | 0.13 | 85 | 1010.1 |
| 20260507032620 | 65 | 149 | 0.9 | 0.9 | 0.00 | 0.13 | 0.13 | 86 | 1010.3 |
| 20260507032044 | 65 | 216 | 0.0 | 0.9 | 0.00 | 0.13 | 0.13 | 86 | 1010.3 |
| 20260507031541 | 65 | 0.0 | 0.0 | 0.00 | 0.13 | 0.13 | 86 | 1010.5 | |
| 20260507031048 | 65 | 0.0 | 0.0 | 0.00 | 0.13 | 0.13 | 86 | 1010.4 | |
| 20260507030540 | 65 | 0.0 | 0.0 | 0.00 | 0.13 | 0.13 | 86 | 1010.2 | |
| 20260507030045 | 65 | 0.0 | 0.0 | 0.00 | 0.13 | 0.13 | 86 | 1010.1 | |
| 20260507025541 | 65 | 0.0 | 0.0 | 0.00 | 0.13 | 0.13 | 86 | 1010.1 | |
| 20260507025043 | 65 | 0.0 | 0.0 | 0.00 | 0.13 | 0.13 | 86 | 1010.1 | |
| 20260507024540 | 65 | 0.0 | 0.0 | 0.00 | 0.13 | 0.13 | 86 | 1010.4 | |
| 20260507024044 | 64 | 0.0 | 0.0 | 0.00 | 0.13 | 0.13 | 86 | 1010.5 | |
| 20260507023542 | 64 | 0.0 | 0.0 | 0.00 | 0.13 | 0.13 | 86 | 1010.1 | |
| 20260507023044 | 64 | 0.0 | 0.0 | 0.00 | 0.13 | 0.13 | 86 | 1010.1 | |
| 20260507022601 | 64 | 0.0 | 0.0 | 0.00 | 0.13 | 0.13 | 86 | 1010.1 | |
| 20260507022044 | 64 | 0.0 | 0.0 | 0.00 | 0.13 | 0.13 | 86 | 1009.7 | |
| 20260507021541 | 64 | 0.0 | 0.0 | 0.00 | 0.13 | 0.13 | 86 | 1009.4 | |
| 20260507021044 | 64 | 0.0 | 0.0 | 0.00 | 0.13 | 0.13 | 87 | 1009.4 | |
| 20260507020540 | 64 | 0.0 | 0.0 | 0.00 | 0.13 | 0.13 | 87 | 1009.2 | |
| 20260507020104 | 64 | 0.0 | 0.0 | 0.00 | 0.13 | 0.13 | 86 | 1009.4 | |
| 20260507015541 | 64 | 0.0 | 0.0 | 0.00 | 0.13 | 0.13 | 85 | 1009.7 | |
| 20260507015044 | 64 | 0.0 | 0.0 | 0.00 | 0.13 | 0.13 | 85 | 1009.8 | |
| 20260507014540 | 64 | 0.0 | 0.0 | 0.00 | 0.13 | 0.13 | 85 | 1009.6 | |
| 20260507014044 | 65 | 0.0 | 0.0 | 0.00 | 0.13 | 0.13 | 85 | 1009.9 | |
| 20260507013541 | 65 | 0.0 | 0.0 | 0.00 | 0.13 | 0.13 | 85 | 1009.9 | |
| 20260507013044 | 65 | 0.0 | 0.0 | 0.00 | 0.13 | 0.13 | 85 | 1009.7 | |
| 20260507012540 | 65 | 0.0 | 0.0 | 0.00 | 0.13 | 0.13 | 84 | 1009.7 | |
| 20260507012044 | 65 | 0.0 | 0.0 | 0.00 | 0.13 | 0.13 | 84 | 1010.1 | |
| 20260507011541 | 65 | 0.0 | 0.0 | 0.00 | 0.13 | 0.13 | 84 | 1010.2 | |
| 20260507011044 | 65 | 0.0 | 0.0 | 0.00 | 0.13 | 0.13 | 83 | 1010.1 | |
| 20260507010540 | 66 | 0.0 | 0.0 | 0.00 | 0.13 | 0.13 | 82 | 1010.0 | |
| 20260507010044 | 66 | 0.0 | 0.0 | 0.00 | 0.13 | 0.13 | 82 | 1009.9 | |
| 20260507005541 | 66 | 0.0 | 0.0 | 0.00 | 0.13 | 0.13 | 82 | 1010.1 | |
| 20260507005124 | 66 | 0.0 | 0.0 | 0.00 | 0.13 | 0.13 | 81 | 1009.9 | |
| 20260507004540 | 66 | 0.0 | 0.0 | 0.00 | 0.13 | 0.13 | 81 | 1009.5 | |
| 20260507004044 | 67 | 0.0 | 0.0 | 0.00 | 0.13 | 0.13 | 80 | 1009.6 | |
| 20260507003541 | 67 | 221 | 0.9 | 1.7 | 0.00 | 0.13 | 0.13 | 80 | 1009.6 |
| 20260507003044 | 67 | 0.0 | 0.0 | 0.00 | 0.13 | 0.13 | 79 | 1009.4 | |
| 20260507002600 | 68 | 225 | 0.0 | 0.9 | 0.00 | 0.13 | 0.13 | 79 | 1009.2 |
| 20260507002044 | 68 | 221 | 0.9 | 0.9 | 0.00 | 0.13 | 0.13 | 79 | 1009.4 |
| 20260507001541 | 68 | 253 | 0.9 | 2.6 | 0.00 | 0.13 | 0.13 | 78 | 1009.2 |
| 20260507001044 | 68 | 230 | 0.9 | 1.7 | 0.00 | 0.13 | 0.13 | 78 | 1009.4 |
| 20260507000540 | 68 | 220 | 0.9 | 1.7 | 0.00 | 0.13 | 0.13 | 78 | 1009.4 |
| 20260507000044 | 69 | 219 | 0.0 | 0.9 | 0.00 | 0.13 | 0.13 | 77 | 1009.4 |
| 20260506235541 | 69 | 215 | 0.0 | 0.9 | 0.00 | 0.13 | 0.13 | 77 | 1009.3 |
| 20260506235044 | 69 | 242 | 0.9 | 1.7 | 0.00 | 0.13 | 0.13 | 76 | 1009.2 |
| 20260506234540 | 69 | 238 | 0.0 | 1.7 | 0.00 | 0.13 | 0.13 | 76 | 1009.2 |
| 20260506234043 | 70 | 237 | 0.0 | 1.7 | 0.00 | 0.13 | 0.13 | 76 | 1009.0 |
| 20260506233541 | 70 | 220 | 0.9 | 1.7 | 0.00 | 0.13 | 0.13 | 75 | 1008.9 |
| 20260506233044 | 70 | 250 | 0.9 | 1.7 | 0.00 | 0.13 | 0.13 | 75 | 1008.9 |
| 20260506232540 | 70 | 223 | 0.9 | 2.6 | 0.00 | 0.13 | 0.13 | 75 | 1008.9 |
| 20260506232044 | 70 | 234 | 0.9 | 1.7 | 0.00 | 0.13 | 0.13 | 75 | 1008.8 |
| 20260506231602 | 70 | 234 | 0.9 | 5.2 | 0.00 | 0.13 | 0.13 | 74 | 1008.9 |
| 20260506231042 | 70 | 237 | 0.9 | 1.7 | 0.00 | 0.13 | 0.13 | 74 | 1009.0 |
| 20260506230540 | 70 | 228 | 0.9 | 0.9 | 0.00 | 0.13 | 0.13 | 74 | 1009.0 |
| 20260506230044 | 70 | 244 | 1.7 | 4.3 | 0.00 | 0.13 | 0.13 | 74 | 1008.9 |
| 20260506225541 | 70 | 246 | 0.9 | 4.3 | 0.00 | 0.13 | 0.13 | 74 | 1008.9 |
| 20260506225041 | 70 | 234 | 0.9 | 2.6 | 0.00 | 0.13 | 0.13 | 74 | 1008.8 |
| 20260506224540 | 71 | 244 | 1.7 | 4.3 | 0.00 | 0.13 | 0.13 | 73 | 1009.0 |
| 20260506224044 | 71 | 249 | 1.7 | 5.2 | 0.00 | 0.13 | 0.13 | 73 | 1008.8 |
| 20260506223541 | 71 | 244 | 1.7 | 2.6 | 0.00 | 0.13 | 0.13 | 73 | 1009.0 |
| 20260506223041 | 71 | 264 | 1.7 | 5.2 | 0.00 | 0.13 | 0.13 | 73 | 1008.8 |
| 20260506222540 | 71 | 246 | 1.7 | 6.1 | 0.00 | 0.13 | 0.13 | 72 | 1008.9 |
| 20260506222044 | 71 | 242 | 1.7 | 4.3 | 0.00 | 0.13 | 0.13 | 72 | 1009.0 |
| 20260506221542 | 71 | 244 | 0.9 | 2.6 | 0.00 | 0.13 | 0.13 | 72 | 1008.8 |
| 20260506221041 | 71 | 246 | 1.7 | 5.2 | 0.00 | 0.13 | 0.13 | 72 | 1008.7 |
| 20260506220600 | 72 | 206 | 1.7 | 4.3 | 0.00 | 0.13 | 0.13 | 72 | 1008.6 |
| 20260506220044 | 71 | 237 | 0.9 | 1.7 | 0.00 | 0.13 | 0.13 | 72 | 1008.7 |
| 20260506215541 | 71 | 225 | 0.9 | 2.6 | 0.00 | 0.13 | 0.13 | 72 | 1008.8 |
| 20260506215041 | 71 | 228 | 0.9 | 2.6 | 0.00 | 0.13 | 0.13 | 73 | 1008.8 |
| 20260506214540 | 71 | 248 | 1.7 | 5.2 | 0.00 | 0.13 | 0.13 | 73 | 1009.0 |
| 20260506214104 | 71 | 233 | 0.9 | 2.6 | 0.00 | 0.13 | 0.13 | 73 | 1008.8 |
| 20260506213541 | 71 | 228 | 0.9 | 2.6 | 0.00 | 0.13 | 0.13 | 73 | 1008.8 |
| 20260506213041 | 71 | 232 | 0.9 | 2.6 | 0.00 | 0.13 | 0.13 | 73 | 1009.0 |
| 20260506212541 | 71 | 234 | 0.0 | 0.9 | 0.00 | 0.13 | 0.13 | 73 | 1009.1 |
| 20260506212044 | 70 | 207 | 0.9 | 2.6 | 0.00 | 0.13 | 0.13 | 73 | 1008.8 |
| 20260506211541 | 70 | 213 | 1.7 | 6.1 | 0.00 | 0.13 | 0.13 | 73 | 1008.7 |
| 20260506211102 | 70 | 240 | 1.7 | 5.2 | 0.00 | 0.13 | 0.13 | 73 | 1008.7 |
| 20260506210601 | 70 | 237 | 0.9 | 1.7 | 0.00 | 0.13 | 0.13 | 74 | 1008.7 |
| 20260506210104 | 70 | 233 | 1.7 | 2.6 | 0.00 | 0.13 | 0.13 | 74 | 1008.4 |
| 20260506205601 | 70 | 250 | 0.9 | 2.6 | 0.00 | 0.13 | 0.13 | 74 | 1008.7 |
| 20260506205041 | 70 | 259 | 1.7 | 6.1 | 0.00 | 0.13 | 0.13 | 74 | 1008.6 |
| 20260506204540 | 70 | 250 | 2.6 | 6.1 | 0.00 | 0.13 | 0.13 | 74 | 1008.6 |
| 20260506204044 | 70 | 238 | 1.7 | 4.3 | 0.00 | 0.13 | 0.13 | 74 | 1008.6 |
| 20260506203541 | 69 | 236 | 1.7 | 2.6 | 0.00 | 0.13 | 0.13 | 75 | 1008.8 |
| 20260506203041 | 69 | 247 | 2.6 | 6.1 | 0.00 | 0.13 | 0.13 | 75 | 1008.6 |
| 20260506202540 | 69 | 262 | 2.6 | 7.8 | 0.00 | 0.13 | 0.13 | 75 | 1008.5 |
| 20260506202044 | 69 | 250 | 1.7 | 5.2 | 0.00 | 0.13 | 0.13 | 75 | 1008.6 |
| 20260506201541 | 69 | 237 | 1.7 | 2.6 | 0.00 | 0.13 | 0.13 | 76 | 1008.7 |
| 20260506201042 | 69 | 239 | 2.6 | 7.0 | 0.00 | 0.13 | 0.13 | 76 | 1008.8 |
| 20260506200540 | 69 | 237 | 1.7 | 5.2 | 0.00 | 0.13 | 0.13 | 76 | 1008.8 |
| 20260506200045 | 68 | 264 | 1.7 | 5.2 | 0.00 | 0.13 | 0.13 | 76 | 1008.6 |
| 20260506195541 | 68 | 256 | 1.7 | 5.2 | 0.00 | 0.13 | 0.13 | 76 | 1008.7 |
| 20260506195041 | 68 | 243 | 1.7 | 6.1 | 0.00 | 0.13 | 0.13 | 77 | 1008.8 |
| 20260506194540 | 67 | 250 | 1.7 | 4.3 | 0.00 | 0.13 | 0.13 | 78 | 1008.8 |
| 20260506194044 | 67 | 250 | 1.7 | 5.2 | 0.00 | 0.13 | 0.13 | 78 | 1008.9 |
| 20260506193601 | 67 | 225 | 1.7 | 4.3 | 0.00 | 0.13 | 0.13 | 78 | 1009.1 |
| 20260506193041 | 67 | 240 | 1.7 | 6.1 | 0.00 | 0.13 | 0.13 | 78 | 1009.0 |
| 20260506192601 | 67 | 249 | 1.7 | 2.6 | 0.00 | 0.13 | 0.13 | 79 | 1009.2 |
| 20260506192044 | 67 | 239 | 0.9 | 2.6 | 0.00 | 0.13 | 0.13 | 79 | 1009.2 |
| 20260506191541 | 67 | 232 | 0.9 | 2.6 | 0.00 | 0.13 | 0.13 | 78 | 1009.2 |
| 20260506191041 | 67 | 233 | 1.7 | 2.6 | 0.00 | 0.13 | 0.13 | 78 | 1009.2 |
| 20260506190541 | 67 | 257 | 1.7 | 4.3 | 0.00 | 0.13 | 0.13 | 78 | 1009.4 |
| 20260506190044 | 67 | 249 | 1.7 | 5.2 | 0.00 | 0.13 | 0.13 | 78 | 1009.4 |
| 20260506185541 | 67 | 228 | 1.7 | 5.2 | 0.00 | 0.13 | 0.13 | 78 | 1009.6 |
| 20260506185042 | 67 | 257 | 1.7 | 6.1 | 0.00 | 0.13 | 0.13 | 78 | 1009.6 |
| 20260506184541 | 67 | 250 | 2.6 | 5.2 | 0.00 | 0.13 | 0.13 | 79 | 1009.9 |
| 20260506184049 | 67 | 241 | 1.7 | 4.3 | 0.00 | 0.13 | 0.13 | 79 | 1010.1 |
| 20260506183542 | 66 | 239 | 0.9 | 1.7 | 0.00 | 0.13 | 0.13 | 79 | 1009.8 |
| 20260506183041 | 66 | 265 | 2.6 | 6.1 | 0.00 | 0.13 | 0.13 | 79 | 1009.6 |
| 20260506182541 | 66 | 257 | 2.6 | 6.1 | 0.00 | 0.13 | 0.13 | 79 | 1009.6 |
| 20260506182044 | 66 | 258 | 1.7 | 4.3 | 0.00 | 0.13 | 0.13 | 79 | 1009.8 |
| 20260506181541 | 66 | 227 | 2.6 | 6.1 | 0.00 | 0.13 | 0.13 | 79 | 1010.0 |
| 20260506181042 | 66 | 236 | 1.7 | 4.3 | 0.00 | 0.13 | 0.13 | 80 | 1009.8 |
| 20260506180541 | 66 | 258 | 1.7 | 4.3 | 0.00 | 0.13 | 0.13 | 80 | 1010.0 |
| 20260506180104 | 66 | 248 | 0.9 | 5.2 | 0.00 | 0.13 | 0.13 | 80 | 1009.7 |
| 20260506175602 | 65 | 234 | 1.7 | 5.2 | 0.00 | 0.13 | 0.13 | 80 | 1009.9 |
| 20260506175042 | 65 | 249 | 2.6 | 7.0 | 0.00 | 0.13 | 0.13 | 80 | 1010.1 |
| 20260506174540 | 65 | 255 | 3.5 | 6.1 | 0.00 | 0.13 | 0.13 | 80 | 1010.0 |
| 20260506174045 | 65 | 262 | 2.6 | 7.8 | 0.00 | 0.13 | 0.13 | 80 | 1010.0 |
| 20260506173542 | 65 | 248 | 1.7 | 2.6 | 0.00 | 0.13 | 0.13 | 80 | 1010.1 |
| 20260506173041 | 65 | 249 | 1.7 | 5.2 | 0.00 | 0.13 | 0.13 | 80 | 1010.1 |
| 20260506172540 | 65 | 247 | 2.6 | 5.2 | 0.00 | 0.13 | 0.13 | 81 | 1010.1 |
| 20260506172045 | 65 | 248 | 2.6 | 7.0 | 0.00 | 0.13 | 0.13 | 81 | 1010.1 |
| 20260506171622 | 65 | 255 | 1.7 | 6.1 | 0.00 | 0.13 | 0.13 | 81 | 1010.3 |
| 20260506171043 | 64 | 242 | 2.6 | 6.1 | 0.00 | 0.13 | 0.13 | 81 | 1010.3 |
| 20260506170540 | 64 | 269 | 2.6 | 6.1 | 0.00 | 0.13 | 0.13 | 81 | 1010.3 |
| 20260506170044 | 64 | 265 | 1.7 | 6.1 | 0.00 | 0.13 | 0.13 | 82 | 1010.2 |
| 20260506165541 | 64 | 248 | 2.6 | 5.2 | 0.00 | 0.13 | 0.13 | 82 | 1010.3 |
| 20260506165042 | 64 | 264 | 2.6 | 7.0 | 0.00 | 0.13 | 0.13 | 82 | 1010.3 |
| 20260506164540 | 64 | 276 | 2.6 | 7.0 | 0.00 | 0.13 | 0.13 | 83 | 1010.3 |
| 20260506164044 | 63 | 267 | 1.7 | 5.2 | 0.00 | 0.13 | 0.13 | 83 | 1010.5 |
| 20260506163601 | 63 | 227 | 2.6 | 7.8 | 0.00 | 0.13 | 0.13 | 84 | 1010.3 |
| 20260506163041 | 63 | 274 | 2.6 | 6.1 | 0.00 | 0.13 | 0.13 | 86 | 1010.5 |
| 20260506162541 | 63 | 251 | 2.6 | 6.1 | 0.00 | 0.13 | 0.13 | 87 | 1010.2 |
| 20260506162044 | 62 | 230 | 2.6 | 7.8 | 0.00 | 0.13 | 0.13 | 88 | 1010.7 |
| 20260506161541 | 62 | 259 | 1.7 | 2.6 | 0.00 | 0.13 | 0.13 | 88 | 1010.7 |
| 20260506161041 | 62 | 236 | 1.7 | 4.3 | 0.00 | 0.13 | 0.13 | 88 | 1010.7 |
| 20260506160540 | 62 | 263 | 2.6 | 8.7 | 0.00 | 0.13 | 0.13 | 88 | 1010.8 |
| 20260506160044 | 61 | 260 | 2.6 | 6.1 | 0.00 | 0.13 | 0.13 | 88 | 1010.7 |
| 20260506155541 | 61 | 258 | 1.7 | 4.3 | 0.00 | 0.13 | 0.13 | 88 | 1010.7 |